Overview Statistics Trail Chart Weather Telemetry Raw packets
 

This is the latest recevied weather packets stored in our database for station/object SV9TNF-56. If no packets are shown the sender has not sent any weather packets the latest 10 day(s).

<< 50 51 52 53 54 55 56 >>
Time Temp. Humidity Pressure Rain* Wind** Luminosity Snow
1788320614 25° C 63% 1011.2 hPa 0 mm 12.52 m/s, 154° - -
1788320314 25° C 63% 1011.2 hPa 0 mm 8.05 m/s, 174° - -
1788320014 25° C 64% 1011.2 hPa 0 mm 12.96 m/s, 138° - -
1788319715 24.44° C 65% 1010.8 hPa 0 mm 5.36 m/s, 72° - -
1788319414 24.44° C 65% 1011.2 hPa 0 mm 14.31 m/s, 82° - -
1788319114 24.44° C 68% 1010.8 hPa 0 mm 12.52 m/s, 84° - -
1788318814 25° C 68% 1011.2 hPa 0 mm 17.88 m/s, 96° - -
1788318514 25° C 66% 1010.8 hPa 0 mm 19.22 m/s, 83° - -
1788318214 25° C 65% 1010.8 hPa 0 mm 24.59 m/s, 120° - -
1788317914 25° C 65% 1010.8 hPa 0 mm 15.2 m/s, 126° - -
1788317614 25° C 63% 1011.2 hPa 0 mm 7.15 m/s, 42° - -
1788317313 25° C 62% 1011.2 hPa 0 mm 12.52 m/s, 98° - -
1788317013 25° C 64% 1010.8 hPa 0 mm 10.28 m/s, 132° - -
1788316714 25° C 64% 1011.2 hPa 0 mm 12.96 m/s, 120° - -
1788316413 25° C 62% 1011.2 hPa 0 mm 1.79 m/s, 84° - -
1788316113 25° C 62% 1011.2 hPa 0 mm 4.47 m/s, 96° - -
1788315813 25° C 63% 1011.2 hPa 0 mm 7.15 m/s, 300° - -
1788315513 25° C 63% 1011.2 hPa 0 mm 3.58 m/s, 195° - -
1788315213 25° C 62% 1011.2 hPa 0 mm 18.33 m/s, 273° - -
1788314913 25° C 61% 1011.2 hPa 0 mm 8.05 m/s, 280° - -
1788314613 25° C 60% 1010.8 hPa 0 mm 13.41 m/s, 168° - -
1788314312 25° C 60% 1011.2 hPa 0 mm 14.31 m/s, 228° - -
1788314013 25° C 60% 1011.2 hPa 0 mm 12.52 m/s, 281° - -
1788313713 25° C 61% 1011.2 hPa 0 mm 22.35 m/s, 265° - -
1788313412 25° C 60% 1010.8 hPa 0 mm 10.28 m/s, 271° - -

* Rain latest hour (hover to see other rain measurements)
** Current wind speed in m/s (hover to see current wind gust speed)